Weather History for KBMG - January, 2015

Change the Weather History Date:

Wednesday, January 28, 2015

  Actual Average Record
Temperature  
Mean Temperature 27 °F 30 °F  
Max Temperature 38 °F 39 °F 68 °F (2002)
Min Temperature 15 °F 21 °F -4 °F (2014)
Degree Days  
Heating Degree Days 38 35  
Month to date heating degree days 1036 1002  
Since 1 July heating degree days 3234 3075  
Cooling Degree Days 0 0  
Month to date cooling degree days 0 0  
Year to date cooling degree days 0 0  
Moisture  
Dew Point 15 °F    
Average Humidity 66    
Maximum Humidity 91    
Minimum Humidity 40    
Precipitation  
Precipitation 0.00 in 0.09 in 0.52 in (2009)
Month to date precipitation 2.20 3.04  
Year to date precipitation 2.20 3.04  
Sea Level Pressure  
Sea Level Pressure 30.25 in    
Wind  
Wind Speed 8 mph (SSE)    
Max Wind Speed 18 mph    
Max Gust Speed 24 mph    
Visibility 9 miles    
Events      
T = Trace of Precipitation, MM = Missing Value Source: NWS Daily Summary

Daily Weather History Graph

Daily Weather History Graph

Search for Another Location

Airport or City:

Trip Planner

Search our weather history database for the weather conditions in past years. The results will help you decide how hot, cold, wet, or windy it might be!

Date:

Astronomy

Jan. 28, 2015 Rise Set
Actual Time 7:56 AM EST 6:02 PM EST
Civil Twilight 7:28 AM EST 6:30 PM EST
Nautical Twilight 6:56 AM EST 7:03 PM EST
Astronomical Twilight 6:24 AM EST 7:34 PM EST
Moon 1:06 PM EST (1/28) 2:28 AM EST (1/28)
Length of Visible Light 11h 02m
Length of Day
10h 05m
Waxing Gibbous, 66% of the Moon is Illuminated
Jan 28
Waxing Gibbous
Feb 3
Full
Feb 11
Last Quarter
Feb 18
New
Feb 25
First Quarter

Hourly Weather History & Observations

Time (EST) Temp. Windchill Dew Point Humidity Pressure Visibility Wind Dir Wind Speed Gust Speed Precip Events Conditions
12:53 AM 18.0 °F - 14.0 °F 84% 30.29 in 9.0 mi Calm Calm - N/A   Clear
1:53 AM 18.0 °F - 14.0 °F 84% 30.31 in 6.0 mi Calm Calm - N/A   Clear
2:53 AM 17.1 °F - 12.9 °F 84% 30.30 in 7.0 mi Calm Calm - N/A   Clear
3:53 AM 16.0 °F - 12.9 °F 88% 30.31 in 7.0 mi Calm Calm - N/A   Clear
4:53 AM 16.0 °F - 12.9 °F 88% 30.32 in 6.0 mi Calm Calm - N/A   Clear
5:53 AM 16.0 °F - 12.0 °F 84% 30.33 in 7.0 mi Calm Calm - N/A   Clear
6:53 AM 16.0 °F - 12.9 °F 88% 30.34 in 6.0 mi Calm Calm - N/A   Clear
7:53 AM 17.1 °F 11.7 °F 14.0 °F 88% 30.36 in 6.0 mi South 3.5 mph - N/A   Clear
8:53 AM 19.9 °F 13.4 °F 17.1 °F 89% 30.37 in 6.0 mi SE 4.6 mph - N/A   Clear
9:53 AM 24.1 °F 14.4 °F 17.1 °F 75% 30.35 in 10.0 mi SSE 9.2 mph - N/A   Clear
10:53 AM 27.0 °F 15.6 °F 16.0 °F 63% 30.36 in 10.0 mi SSE 13.8 mph - N/A   Clear
11:53 AM 30.9 °F 23.5 °F 17.1 °F 57% 30.35 in 10.0 mi South 8.1 mph - N/A   Clear
12:53 PM 33.1 °F 25.5 °F 14.0 °F 46% 30.31 in 10.0 mi South 9.2 mph - N/A   Clear
1:53 PM 35.1 °F 27.9 °F 16.0 °F 46% 30.27 in 10.0 mi SSE 9.2 mph - N/A   Clear
2:53 PM 37.9 °F 29.2 °F 17.1 °F 43% 30.25 in 10.0 mi South 15.0 mph - N/A   Clear
3:53 PM 37.0 °F 28.1 °F 16.0 °F 42% 30.22 in 10.0 mi SSE 15.0 mph - N/A   Clear
4:53 PM 37.0 °F 30.4 °F 16.0 °F 42% 30.20 in 10.0 mi SSE 9.2 mph - N/A   Clear
5:53 PM 36.0 °F 27.1 °F 15.1 °F 43% 30.18 in 10.0 mi SSE 13.8 mph - N/A   Clear
6:53 PM 34.0 °F 26.6 °F 16.0 °F 48% 30.18 in 10.0 mi SE 9.2 mph - N/A   Clear
7:53 PM 34.0 °F 25.0 °F 16.0 °F 48% 30.15 in 10.0 mi SSE 12.7 mph - N/A   Clear
8:53 PM 35.1 °F 25.5 °F 16.0 °F 46% 30.12 in 10.0 mi SSE 15.0 mph - N/A   Clear
9:53 PM 34.0 °F 24.6 °F 17.1 °F 50% 30.09 in 10.0 mi SSE 13.8 mph 20.7 mph N/A   Clear
10:53 PM 35.1 °F 25.5 °F 17.1 °F 48% 30.05 in 10.0 mi SSE 15.0 mph - N/A   Clear
11:53 PM 35.1 °F 27.9 °F 17.1 °F 48% 30.05 in 10.0 mi SSE 9.2 mph - N/A   Clear